Погода в Балахте

Погода в Балахте : погода сейчас, прогноз погоды и архив. Всё, что Вы хотите узнать о погоде в Балахте!

Поиск расширенной информации на нашем сайте:

Другие новости

Новости СМИ2

Главная страница сайта

Новости сайта

03.07.2017

Напоминаем, что на нашем специализированном сайте Метеоцентр.Азия вы можете получить высокодетализированные автоматические прогнозы погоды по пунктам России, СНГ и мира в авиационном формате (включающие направление и скорость ветра, видимость, явления погоды, количество и форму облачности, нижнюю и верхнюю границу облачности).


Погода в Балахте - сегодня

Время (UTC), дата Ветер
(°,м/с) 
Видим.   Явления Облачность Т
(°С)
Тd
(°С)
f(%) Тe
(°С)
Pmin
(гПа)
dP
(гПа)
Po
(мм)
O2
(г/м3)
Тmin Tmax R s Состояние
почвы
18 15.04.18 220 (ЮЗ) 20000 м    ясно 
+1.5 -5.1 61 1011.4  0.2  729  293           
21 15.04.18 200 (Ю) 20000 м    ясно 
+1.2 -4.7 65 +2  1011  -0.4  729  293           
00 16.04.18 210 (ЮЗ) 20000 м    9/9 1000 м 
[Sc]
+2.3 -5.2 58 +2  1010.6  -0.3  728  292  -1      мокрый или
старый снег
50-90% 
03 16.04.18 210 (ЮЗ) 20000 м    9/9 1000 м 
[Sc]
+4.4 -5.7 48 +4  1009.7  -0.5  728  289           
06 16.04.18 190 (Ю) 20000 м    8/0 средняя 
[Sc|Ac lent]
+8.8 -6 35 +8  1007.6  -1.6  727  284           
09 16.04.18 250 (З) 20000 м    6/0 средняя, верхняя 
[Ac cast|Ci]
-7.1   1005.2  -2  725             
12 16.04.18 140 (ЮВ) 20000 м    10/0 средняя 
[Sc|Ac As]
+8.3 -3.9 42 +8        +10.3       
15 16.04.18 210 (ЮЗ) 20000 м    3/0 средняя 
[Ac lent]
+5 -5.6 46 +6  1003.7  -0.5  724  287           
18 16.04.18 210 (ЮЗ) 20000 м    ясно 
+3.4 -4.4 57 +1  1004  0.1  724  288           
00 17.04.18 210 (ЮЗ) 20000 м    9/9 1000 м 
[Sc]
+4.7 -3.7 54 +4  1005.5  0.5  725  288  +0.3      мокрый или
старый снег
50-90% 
03 17.04.18 240 (ЮЗ) 20000 м  {ливн. осадки}  9/9 600 м кучево-дожд. 
[Cb cap]
+6.8 -1.8 54 +6  1005.5  0.3  725  285           
09 17.04.18 230 (ЮЗ) 5{13}  20000 м    9/9 600 м кучево-дожд. 
[Cb cap]
+4.9 -3.8 53 +3  1007.7  727  288           
12 17.04.18 250 (З) 5-10{12}  20000 м    9/9 600 м кучево-дожд. 
[Cb cap]
+4 -4.7 53 +2  1008.2  0.2  727  289    +7.5  0.0     
18 17.04.18 260 (З) 3{11}  н/о    н/о 
-2.6 -5.7 79 -5               
21 17.04.18 220 (ЮЗ) 20000 м    4/0 верхняя 
[Ci]
-3.8 -6.7 80 -3  1015.9  1.5  732  300           
00 18.04.18 270 (З) 20000 м    9/9 600 м кучево-дожд. 
[Cb cap]
-3.5 -8.3 69 -6  1016.9  732  300  -4    0.0  мокрый или
старый снег
50-90% 
03 18.04.18 280 (З) 20000 м  осадки на расстоянии  8/8 600 м кучево-дожд. 
[Cb cap]
-2.2 -6.9 70 -4  1018.5  1.6  734  299           
12 18.04.18 330 (СЗ) 20000 м  {ливн. осадки}  8/8 600 м кучево-дожд. 
[Cb cap]
-1 -9.7 52 -2  1020.4  0.2  735  298    +0  0.0     
15 18.04.18 тихо ()   20000 м    ясно 
-3.5 -9.6 63 -4  1020.8  0.1  735  301           
18 18.04.18 тихо ()   20000 м    ясно 
-6.4 -8.4 86 -6  1022.3  0.9  736  304           
21 18.04.18 120 (ЮВ) 20000 м    8/8 1000 м 
[Sc]
-7.4 -9.1 88 -7  1022.8  0.4  736  306           
00 19.04.18 080 (В) 20000 м    10/10 1000 м 
[Sc]
-5.8 -7.4 88 -5      -7.8      мокрый или
старый снег
10-40% 
03 19.04.18 330 (СЗ) 10 км  слаб. ливневой снег  10/10 600 м кучево-дожд. 
[Cb cap]
-3.2 -7.6 72 -3  1023.3  0.5  737  301           
06 19.04.18 350 (С) 20000 м  {ливн. осадки}  9/8 600 м кучево-дожд., верхняя 
[Cb cap|Cs]
-0.6 -5.8 68 1022.2  -0.6  737  298           
09 19.04.18 240 (ЮЗ) 20000 м    8/8 600 м кучево-дожд. 
[Cb cap]
+1.8 -7.7 49 +1  1020.6  -1.3  736  295           
Время (UTC), дата Ветер
(°,м/с) 
Видим.   Явления Облачность Т
(°С)
Тd
(°С)
f(%) Тe
(°С)
Pmin
(гПа)
dP
(гПа)
Po
(мм)
O2
(г/м3)
Тmin Tmax R s Состояние
почвы

Для получения пояснительной информации подведите курсор к названию столбца.

ПОГОДА в Балахте - архив

Всё, что Вы хотите узнать о погоде в Балахте - удобно и подробно!

Выберите нужную дату (начиная с 1 января 2015* года) и нажмите кнопку "Найти".
Будут отображены архивные сводки погоды по пункту Балахта, начиная с указанной даты.


Отображать данные в формате CSV (для использования в таблицах Excel)


Внимание! Наш архив погоды предназначен исключительно для личного некоммерческого использования в познавательных целях. Если Вам необходимы официальные справки о состоянии погоды (для производственных, юридических, коммерческих и т.п. целей), обращайтесь в органы Росгидромета.

*Примечание: данная дата относится к архиву по метеостанциям СССР (Россия, СНГ, Балтия).
Архив по метеостанциям Зарубежной Европы и Азии (кроме Китая) хранится 10 дней, по другим регионам земного шара (Китай, Африка, Америка, Австралия, Океания) - 1 день.

Балахта - район местоположения метеостанции


Название, широта, долгота, высота метеостанции:
Балахта 55.4°ш. 91.7°д. 321 м над ур. моря [Российская Федерация]

Дополнительная информация

В oтличие oт бoльшинства пoгoдных сайтoв мы публикуем пoдрoбную метеoинфoрмацию в детальнoм прoфессиoнальнoм фoрмате.

Характеристики температуры и влажнoсти вoздуха измеряются на высoте 2 м в тени вдали oт зданий и деревьев.
Скoрoсть ветра измеряется на высoте 10 м (на урoвне рoста челoвека скoрoсть ветра ниже в 1.5-2 раза). Если метеoстанция нахoдится в гoрoде или в лесу, тo скoрoсть ветра занижена на 2-4 м/с пo сравнению с oткрытым местoм. Скoрoсть ветра над акватoриями крупных рек и oзёр, а также на вершинах хoлмoв на 2-5 м/с выше, чем в oбычных услoвиях.
Атмoсфернoе давление в разных тoчках местнoсти мoжет значительнo oтличаться oт давления на метеoстанции, в зависимoсти oт услoвий рельефа (при пoдъёме на 10 м давление пoнижается примернo на 1 мм рт.ст.).